Location: Haliburton Scout Reserve
(45.0900°N, 78.3200°W)
Time: 03:09:33
(UTC-04:00)

NANOSAT C BR1 - Pass Details

Date: 16 May 2022
Orbit: 583 x 601 km, 98.0° (Epoch: 27 June)

Event Time Altitude Azimuth Distance (km) Brightness Sun altitude
Rises 04:50:49 0° 353° (N) 2,828 ? -8.5°
Maximum altitude 04:55:47 12° 300° (WNW) 1,807 ? -7.8°
Drops below altitude 10° 04:57:13 10° 280° (W) 1,910 ? -7.6°
Enters shadow 04:58:48 - 262° (W) 2,229 ? -7.4°
